Weather History for Orlando International, FL

Change the Weather History Date:

Wednesday, December 4, 2013

  Actual Average Record
Temperature  
Mean Temperature 72 °F 65 °F  
Max Temperature 82 °F 75 °F 88 °F (1978)
Min Temperature 61 °F 55 °F 31 °F (1910)
Degree Days  
Heating Degree Days 0 3  
Month to date heating degree days 0 12  
Since 1 July heating degree days 23 59  
Cooling Degree Days 7 3  
Month to date cooling degree days 13 12  
Year to date cooling degree days 3574 3366  
Growing Degree Days 22 (Base 50)    
Moisture  
Dew Point 62 °F    
Average Humidity 74    
Maximum Humidity 100    
Minimum Humidity 47    
Precipitation  
Precipitation 0.00 in 0.08 in 1.61 in (1997)
Month to date precipitation T 0.33  
Year to date precipitation 42.44 48.48  
Sea Level Pressure  
Sea Level Pressure 30.05 in    
Wind  
Wind Speed 2 mph (South)    
Max Wind Speed 12 mph    
Max Gust Speed 16 mph    
Visibility 10 miles    
Events Fog    
T = Trace of Precipitation, MM = Missing Value Source: NWS Daily Summary

Daily Weather History Graph

Daily Weather History Graph

Search for Another Location

Airport:

Trip Planner

Search our weather history database for the weather conditions in past years. The results will help you decide how hot, cold, wet, or windy it might be!

Date:

Astronomy

Dec. 04, 2013 Rise Set
Actual Time 7:02 AM EST 5:28 PM EST
Civil Twilight 6:36 AM EST 5:54 PM EST
Nautical Twilight 6:07 AM EST 6:23 PM EST
Astronomical Twilight 5:39 AM EST 6:51 PM EST
Moon 8:32 AM EST (12/4) 7:33 PM EST (12/4)
Length of Visible Light 11h 17m
Length of Day
10h 25m
Waxing Crescent, 4% of the Moon is Illuminated
Dec 4
Waxing Crescent
Dec 9
First Quarter
Dec 17
Full
Dec 25
Last Quarter
Jan 1
New

Hourly Weather History & Observations

Time (EST) Temp. Heat Index Dew Point Humidity Pressure Visibility Wind Dir Wind Speed Gust Speed Precip Events Conditions
12:53 AM 63.0 °F - 60.1 °F 90% 30.01 in 10.0 mi South 4.6 mph - N/A   Mostly Cloudy
1:53 AM 64.0 °F - 61.0 °F 90% 30.00 in 10.0 mi SSE 4.6 mph - N/A   Mostly Cloudy
2:53 AM 63.0 °F - 60.1 °F 90% 30.00 in 10.0 mi SSE 4.6 mph - N/A   Partly Cloudy
3:53 AM 62.1 °F - 60.1 °F 93% 30.00 in 10.0 mi Calm Calm - N/A   Partly Cloudy
4:53 AM 63.0 °F - 61.0 °F 93% 30.01 in 10.0 mi Calm Calm - N/A   Scattered Clouds
5:53 AM 61.0 °F - 60.1 °F 97% 30.02 in 10.0 mi Calm Calm - N/A   Scattered Clouds
6:53 AM 63.0 °F - 61.0 °F 93% 30.04 in 10.0 mi Calm Calm - N/A Fog Shallow Fog
7:53 AM 63.0 °F - 61.0 °F 93% 30.06 in 10.0 mi Calm Calm - N/A Fog Shallow Fog
8:53 AM 70.0 °F - 64.0 °F 81% 30.07 in 10.0 mi South 6.9 mph - N/A   Mostly Cloudy
9:53 AM 75.9 °F - 64.9 °F 69% 30.09 in 10.0 mi SW 6.9 mph - N/A   Mostly Cloudy
10:53 AM 78.1 °F - 64.9 °F 64% 30.09 in 10.0 mi SW 10.4 mph - N/A   Mostly Cloudy
11:53 AM 79.0 °F - 64.9 °F 62% 30.07 in 10.0 mi South 6.9 mph - N/A   Mostly Cloudy
12:53 PM 81.0 °F 82.5 °F 64.0 °F 56% 30.05 in 10.0 mi Variable 6.9 mph - N/A   Mostly Cloudy
1:53 PM 79.0 °F - 64.0 °F 60% 30.03 in 10.0 mi WSW 3.5 mph - N/A   Mostly Cloudy
2:53 PM 82.0 °F 82.7 °F 61.0 °F 49% 30.03 in 10.0 mi Calm Calm - N/A   Mostly Cloudy
3:53 PM 82.0 °F 82.7 °F 61.0 °F 49% 30.03 in 10.0 mi Calm Calm - N/A   Mostly Cloudy
4:53 PM 78.1 °F - 62.1 °F 58% 30.04 in 10.0 mi Calm Calm - N/A   Mostly Cloudy
5:53 PM 75.0 °F - 62.1 °F 64% 30.06 in 10.0 mi Calm Calm - N/A   Mostly Cloudy
6:53 PM 70.0 °F - 63.0 °F 78% 30.07 in 10.0 mi Calm Calm - N/A   Mostly Cloudy
7:53 PM 70.0 °F - 63.0 °F 78% 30.08 in 10.0 mi ESE 3.5 mph - N/A   Mostly Cloudy
8:53 PM 70.0 °F - 64.0 °F 81% 30.09 in 10.0 mi Calm Calm - N/A   Partly Cloudy
9:53 PM 68.0 °F - 64.0 °F 87% 30.09 in 10.0 mi Calm Calm - N/A   Scattered Clouds
10:53 PM 66.9 °F - 64.0 °F 90% 30.10 in 10.0 mi Calm Calm - N/A   Partly Cloudy
11:53 PM 66.9 °F - 64.0 °F 90% 30.11 in 10.0 mi Calm Calm - N/A   Partly Cloudy